Regional Weather Roundup
Issued by NWS Cleveland, OH

Home | Current Version | Previous Version | Graphics & Text | Print | Product List | Glossary On
Versions: 1 2 3 4 5 6 7 8 9 10 11 12 13 14 15 16 17 18 19 20 21 22 23 24 25 26 27 28 29 30 31 32 33 34 35 36 37 38 39 40 41 42 43 44 45 46 47 48 49 50
000
ASUS41 KCLE 271600
RWRCLE
OHIO REGIONAL WEATHER ROUNDUP
NATIONAL WEATHER SERVICE WILMINGTON, OH
1200 PM EDT WED AUG 27 2014

NOTE: "FAIR" INDICATES FEW OR NO CLOUDS BELOW 12,000 FEET WITH NO
SIGNIFICANT WEATHER AND/OR OBSTRUCTIONS TO VISIBILITY.

OHZ001>008-015>018-024>027-034-035-043-044-271700-
   NORTHWEST OHIO

CITY           SKY/WX    TMP DP  RH WIND       PRES   REMARKS
DEFIANCE       MOSUNNY   76  65  68 E3        30.12F
FINDLAY        CLOUDY    78  69  73 NW8       30.11S
TOLEDO EXPRESS MOSUNNY   77  67  71 N3        30.12S
TOLEDO METCALF PTSUNNY   76  65  68 NE8       30.12F
LIMA           MOSUNNY   79  70  74 CALM      30.11S
$$

OHZ009>014-019>023-028>033-038-089-271700-
   NORTHEAST OHIO

CITY           SKY/WX    TMP DP  RH WIND       PRES   REMARKS
CLE-HOPKINS    CLOUDY    75  69  81 N9        30.12R
CLE-LAKEFRONT  CLOUDY    72  66  81 N14       30.10R
CUY CO. ARPT   CLOUDY    77  70  78 N8        30.11R HAZE
LORAIN-ELYRIA  PTSUNNY   79  70  74 N10       30.10S
ASHTABULA      CLOUDY    74  67  78 N7        30.10S
AKRON-CANTON   CLOUDY    80  67  64 NW5       30.10F
WOOSTER        NOT AVBL
MANSFIELD      SUNNY     80  68  66 NW6       30.12S
YOUNGSTOWN     CLOUDY    76  68  76 N3        30.10S
$$

OHZ042-051>053-060>062-070>072-077>081-271700-
  SOUTHWEST OHIO

CITY           SKY/WX    TMP DP  RH WIND       PRES   REMARKS
CINC-COVINGTON PTSUNNY   86  68  54 NW6       30.12S
CINC-LUNKEN    MOSUNNY   85  72  65 VRB3      30.10S HX  91
HAMILTON       MOSUNNY   85  70  60 NE3       30.12R
DAYTON         NOT AVBL
WRIGHT-PAT AFB SUNNY     81  72  72 NE2       30.11S
DAYTON GENERAL SUNNY     84  69  60 W5        30.11S
WILMINGTON     MOSUNNY   85  69  58 CALM      30.12R
$$

OHZ036-037-039>041-045>050-054>059-063>069-073>076-082>088-271700-
  CENTRAL AND SOUTHEAST OHIO

CITY           SKY/WX    TMP DP  RH WIND       PRES   REMARKS
COLUMBUS       PTSUNNY   84  68  58 CALM      30.10R
OSU AIRPORT    PTSUNNY   83  68  60 VRB6      30.11R
BOLTON FIELD   NOT AVBL
RICKENBACK AFB NOT AVBL
NEWARK         MOSUNNY   82  70  66 CALM      30.10R
MARION         PTSUNNY   77  69  76 VRB5      30.12R
LANCASTER      MOSUNNY   82  71  69 W5        30.11R
ZANESVILLE     MOSUNNY   81  69  67 CALM      30.09S
NEW PHILLY     MOSUNNY   81  72  74 CALM      30.09F
$$



USA.gov is the U.S. government's official web portal to all federal, state and local government web resources and services.